Stündliche Wetter Cedar Hill

Heute, 19 Januar, Dienstag

Zeit Temperatur Niederschläge Wind Luftdruck Luftfeuchtigkeit
00:00 +13°C° 0 mm 3 m/S 742 mmHg 89%
01:00 +13°C° 0.2 mm 3 m/S 743 mmHg 89%
02:00 +13°C° 0.2 mm 3 m/S 743 mmHg 89%
03:00 +13°C° 0.2 mm 3 m/S 743 mmHg 90%
04:00 +12°C° 0.4 mm 4 m/S 744 mmHg 89%
05:00 +12°C° 0.4 mm 5 m/S 745 mmHg 89%
06:00 +12°C° 0 mm 5 m/S 746 mmHg 79%
07:00 +10°C° 0.2 mm 5 m/S 746 mmHg 72%
08:00 +11°C° 0.2 mm 4 m/S 747 mmHg 66%
09:00 +11°C° 0.2 mm 4 m/S 748 mmHg 60%
10:00 +11°C° 0.2 mm 4 m/S 748 mmHg 57%
11:00 +10°C° 0.2 mm 5 m/S 749 mmHg 55%
12:00 +12°C° 0.2 mm 5 m/S 749 mmHg 53%
13:00 +10°C° 0.1 mm 6 m/S 749 mmHg 53%
14:00 +10°C° 0.1 mm 6 m/S 749 mmHg 54%
15:00 +9°C° 0.1 mm 6 m/S 749 mmHg 54%
16:00 +9°C° 0 mm 6 m/S 750 mmHg 54%
17:00 +9°C° 0 mm 5 m/S 750 mmHg 53%
18:00 +9°C° 0 mm 5 m/S 751 mmHg 53%
19:00 +10°C° 0 mm 4 m/S 751 mmHg 53%
20:00 +10°C° 0 mm 4 m/S 752 mmHg 54%
21:00 +10°C° 0 mm 4 m/S 752 mmHg 54%
22:00 +10°C° 0 mm 4 m/S 752 mmHg 55%
23:00 +8°C° 0 mm 4 m/S 752 mmHg 56%

Morgen, 20 Januar, Mittwoch

Zeit Temperatur Niederschläge Wind Luftdruck Luftfeuchtigkeit
00:00 +9°C° 0 mm 3 m/S 752 mmHg 57%
01:00 +9°C° 0 mm 3 m/S 752 mmHg 58%
02:00 +9°C° 0 mm 3 m/S 752 mmHg 59%
03:00 +9°C° 0 mm 3 m/S 752 mmHg 60%
04:00 +9°C° 0 mm 2 m/S 751 mmHg 60%
05:00 +8°C° 0 mm 2 m/S 751 mmHg 61%
06:00 +8°C° 0 mm 2 m/S 751 mmHg 62%
07:00 +8°C° 0 mm 2 m/S 751 mmHg 63%
08:00 +8°C° 0 mm 2 m/S 750 mmHg 64%
09:00 +10°C° 0 mm 1 m/S 750 mmHg 65%
10:00 +10°C° 0 mm 1 m/S 750 mmHg 67%
11:00 +10°C° 0 mm 1 m/S 750 mmHg 68%
12:00 +11°C° 0 mm 1 m/S 750 mmHg 70%
13:00 +11°C° 0 mm 1 m/S 749 mmHg 73%
14:00 +11°C° 0 mm 1 m/S 748 mmHg 76%
15:00 +10°C° 0 mm 0 m/S 747 mmHg 78%
16:00 +10°C° 0 mm 0 m/S 747 mmHg 81%
17:00 +11°C° 0 mm 1 m/S 746 mmHg 83%
18:00 +11°C° 0 mm 1 m/S 746 mmHg 85%
19:00 +11°C° 0 mm 1 m/S 746 mmHg 86%
20:00 +11°C° 0 mm 1 m/S 745 mmHg 86%
21:00 +10°C° 0 mm 2 m/S 745 mmHg 87%
22:00 +10°C° 0 mm 2 m/S 745 mmHg 88%
23:00 +10°C° 0 mm 2 m/S 745 mmHg 89%

übermorgen, 21 Januar, Donnerstag

Zeit Temperatur Niederschläge Wind Luftdruck Luftfeuchtigkeit
00:00 +11°C° 0 mm 3 m/S 744 mmHg 90%
01:00 +11°C° 0 mm 3 m/S 744 mmHg 92%
02:00 +11°C° 0 mm 3 m/S 743 mmHg 94%
03:00 +12°C° 0 mm 3 m/S 742 mmHg 96%
04:00 +12°C° 0 mm 3 m/S 742 mmHg 96%
05:00 +13°C° 0 mm 3 m/S 742 mmHg 96%
06:00 +13°C° 0 mm 3 m/S 742 mmHg 95%
07:00 +14°C° 0.1 mm 4 m/S 741 mmHg 95%
08:00 +14°C° 0.1 mm 4 m/S 741 mmHg 94%
09:00 +15°C° 0.1 mm 5 m/S 741 mmHg 93%
10:00 +15°C° 0.1 mm 5 m/S 741 mmHg 92%
11:00 +17°C° 0.1 mm 4 m/S 741 mmHg 90%
12:00 +18°C° 0.1 mm 4 m/S 740 mmHg 88%
13:00 +18°C° 0.3 mm 4 m/S 740 mmHg 90%
14:00 +18°C° 0.3 mm 3 m/S 739 mmHg 91%
15:00 +18°C° 0.3 mm 3 m/S 738 mmHg 92%
16:00 +18°C° 0.6 mm 3 m/S 738 mmHg 94%
17:00 +17°C° 0.6 mm 3 m/S 738 mmHg 95%
18:00 +17°C° 0.6 mm 2 m/S 738 mmHg 97%
19:00 +17°C° 0.4 mm 2 m/S 738 mmHg 97%
20:00 +17°C° 0.4 mm 2 m/S 738 mmHg 97%
21:00 +17°C° 0.4 mm 2 m/S 738 mmHg 97%
22:00 +17°C° 0.6 mm 2 m/S 738 mmHg 97%
23:00 +17°C° 0.6 mm 2 m/S 738 mmHg 96%

22 Januar, Freitag

Zeit Temperatur Niederschläge Wind Luftdruck Luftfeuchtigkeit
00:00 +17°C° 0.6 mm 2 m/S 738 mmHg 95%
01:00 +16°C° 0 mm 2 m/S 738 mmHg 95%
02:00 +16°C° 0 mm 2 m/S 738 mmHg 94%
03:00 +16°C° 0 mm 3 m/S 738 mmHg 94%
04:00 +14°C° 0 mm 3 m/S 738 mmHg 90%
05:00 +13°C° 0 mm 4 m/S 739 mmHg 86%
06:00 +13°C° 0 mm 5 m/S 739 mmHg 82%
07:00 +13°C° 0 mm 5 m/S 740 mmHg 83%
08:00 +13°C° 0 mm 5 m/S 741 mmHg 85%
09:00 +13°C° 0 mm 5 m/S 741 mmHg 87%
10:00 +13°C° 0 mm 5 m/S 742 mmHg 83%
11:00 +13°C° 0 mm 5 m/S 742 mmHg 79%
12:00 +13°C° 0 mm 5 m/S 742 mmHg 75%
13:00 +13°C° 0 mm 5 m/S 742 mmHg 74%
14:00 +13°C° 0 mm 5 m/S 742 mmHg 73%
15:00 +13°C° 0 mm 5 m/S 742 mmHg 72%
16:00 +12°C° 0 mm 5 m/S 742 mmHg 73%
17:00 +12°C° 0 mm 5 m/S 743 mmHg 75%
18:00 +11°C° 0 mm 4 m/S 743 mmHg 76%
19:00 +11°C° 0 mm 4 m/S 744 mmHg 76%
20:00 +11°C° 0 mm 4 m/S 744 mmHg 76%
21:00 +11°C° 0 mm 4 m/S 745 mmHg 76%
22:00 +10°C° 0 mm 4 m/S 745 mmHg 76%
23:00 +10°C° 0 mm 4 m/S 745 mmHg 76%

23 Januar, Samstag

Zeit Temperatur Niederschläge Wind Luftdruck Luftfeuchtigkeit
00:00 +10°C° 0 mm 4 m/S 745 mmHg 75%
01:00 +8°C° 0 mm 4 m/S 745 mmHg 74%
02:00 +8°C° 0 mm 4 m/S 745 mmHg 73%
03:00 +8°C° 0 mm 4 m/S 744 mmHg 72%
04:00 +7°C° 0 mm 4 m/S 744 mmHg 72%
05:00 +7°C° 0 mm 4 m/S 745 mmHg 72%
06:00 +6°C° 0 mm 5 m/S 745 mmHg 72%
07:00 +6°C° 0 mm 4 m/S 745 mmHg 72%
08:00 +6°C° 0 mm 4 m/S 745 mmHg 72%
09:00 +6°C° 0 mm 4 m/S 745 mmHg 71%
10:00 +7°C° 0 mm 4 m/S 745 mmHg 69%
11:00 +8°C° 0 mm 4 m/S 745 mmHg 67%
12:00 +11°C° 0 mm 3 m/S 744 mmHg 65%
13:00 +12°C° 0 mm 3 m/S 744 mmHg 66%
14:00 +12°C° 0 mm 3 m/S 743 mmHg 67%
15:00 +13°C° 0 mm 3 m/S 742 mmHg 68%
16:00 +13°C° 0.1 mm 3 m/S 742 mmHg 72%
17:00 +13°C° 0.1 mm 3 m/S 742 mmHg 75%
18:00 +14°C° 0.1 mm 2 m/S 742 mmHg 78%
19:00 +13°C° 0.3 mm 3 m/S 742 mmHg 81%
20:00 +12°C° 0.3 mm 3 m/S 742 mmHg 84%
21:00 +12°C° 0.3 mm 4 m/S 742 mmHg 88%
22:00 +12°C° 0.2 mm 4 m/S 742 mmHg 89%
23:00 +12°C° 0.2 mm 4 m/S 741 mmHg 91%

24 Januar, Sonntag

Zeit Temperatur Niederschläge Wind Luftdruck Luftfeuchtigkeit
00:00 +12°C° 0.2 mm 4 m/S 741 mmHg 93%
01:00 +12°C° 0 mm 3 m/S 740 mmHg 94%
02:00 +12°C° 0 mm 3 m/S 740 mmHg 94%
03:00 +13°C° 0 mm 3 m/S 740 mmHg 95%
04:00 +13°C° 0.1 mm 3 m/S 739 mmHg 96%
05:00 +13°C° 0.1 mm 3 m/S 739 mmHg 96%
06:00 +13°C° 0.1 mm 3 m/S 739 mmHg 97%
07:00 +13°C° 0.2 mm 3 m/S 739 mmHg 97%
08:00 +14°C° 0.2 mm 4 m/S 739 mmHg 97%
09:00 +14°C° 0.2 mm 4 m/S 739 mmHg 97%
10:00 +14°C° 0.4 mm 4 m/S 738 mmHg 97%
11:00 +15°C° 0.4 mm 4 m/S 738 mmHg 97%
12:00 +17°C° 0.4 mm 4 m/S 737 mmHg 96%
13:00 +18°C° 0 mm 4 m/S 737 mmHg 93%
14:00 +19°C° 0 mm 4 m/S 736 mmHg 91%
15:00 +20°C° 0 mm 5 m/S 735 mmHg 88%
16:00 +20°C° 0.1 mm 4 m/S 734 mmHg 89%
17:00 +20°C° 0.1 mm 3 m/S 734 mmHg 91%
18:00 +20°C° 0.1 mm 3 m/S 734 mmHg 92%
19:00 +20°C° 1 mm 3 m/S 734 mmHg 93%
20:00 +19°C° 1 mm 4 m/S 734 mmHg 93%
21:00 +19°C° 1 mm 4 m/S 734 mmHg 93%
22:00 +20°C° 1.3 mm 6 m/S 733 mmHg 91%
23:00 +20°C° 1.3 mm 8 m/S 733 mmHg 88%
Mehr zeigen

Wir brauchen deine Erlaubnis

Meteoprog und unser Service Anbieter werden persönliche Daten aufbewahren, so wie Cookies, Geräte Bezeichnung oder ähnliche Technologien von deinem Gerät und Prozess, so wie Persönliche Daten Inhalte und Werbungen, genauso wie social Media und den Verkehr zu analysieren.

  • Aufbewahrung und/oder Zugang zu deiner Geräte Informationen.

    Cookies, Geräte Bezeichnung oder andere Informationen, können aufbewahrt oder Zugang zu deinem Gerät erhalten, für den Grund, der oben angegeben wird.

  • Personalisierte Werbung und Inhalte, Messungen, Einblick in das Publikum und Produkt Entwicklung.

    Werbungen und Inhalte können personalisiert werden, basierend auf ein Profil. Mehr Daten können besser personalisierte Werbungen und Inhalte hinzufügen. Werbung und Inhalte können gezeigt und gemessen werden. Einblicke über das Publikum, welche die Werbung gesehen haben und den Inhalt, können abgeleitet werden. So wie Daten können genutzt werden, um es zu verbessern oder die Benutzer Erfahrung zu verbessern das System und die Software.

Wenn du “Ich stimme zu” klickst, erlaubst du uns, die Cookies zu benutzen die Geräte Bezeichnung, den Web oder ähnliche Technologien zu benutzen. Deine Settings, können in deinem Gerät bei deinem Browser geändert werden.

Für den bestimmten Zweck, berechtigten Interessen beruhen darauf, mehr als auf den Inhalt. Du kannst mehr darüber in unseren Privaten und Cookie Politik lesen.